Orbital Elements at Epoch 2459200.5 (2020-Dec-17.0) TDB
Reference: JPL 11 (heliocentric ecliptic J2000)
Element | Value | Uncertainty (1-sigma) | Units |
e | .07262992659898929 | 5.2873e-08 | |
a | 3.260165520579812 | 2.7473e-08 | au |
q | 3.023379938119545 | 1.5958e-07 | au |
i | 6.531180820056813 | 5.5941e-06 | deg |
node | 75.48837023462558 | 4.3718e-05 | deg |
peri | 67.23215779634026 | 5.8302e-05 | deg |
M | 135.019426812726 | 4.0419e-05 | deg |
tp | 2458394.097879499158 (2018-Oct-02.59787950) | 0.00023848 | TDB |
period | 2150.096250837741 5.89 | 2.7178e-05 7.441e-08 | d yr |
n | .1674343647916847 | 2.1164e-09 | deg/d |
Q | 3.49695110304008 | 2.9469e-08 | au |
|
| | Orbit Determination Parameters
Additional Information
|